Location: Newark
(34.9500°N, 139.9667°E)
Time: 15:35:48
(UTC+00:00)

Vanguard 1 Rocket - Pass Details

Date: 12 December 2019
Orbit: 651 x 4226 km, 34.3° (Epoch: 28 January)

Event Time Altitude Azimuth Distance (km) Brightness Sun altitude
Rises 14:38:57 0° 276° (W) 6,459 11.8 -78.1°
Enters shadow 14:39:39 - 276° (W) 6,244 11.7 -78.1°
Reaches altitude 10° 14:44:02 10° 276° (W) 4,857 - -77.9°
Maximum altitude 14:55:58 79° 193° (SSW) 1,340 - -77.2°
Drops below altitude 10° 15:02:07 10° 106° (ESE) 2,618 - -76.6°
Sets 15:04:06 0° 105° (ESE) 3,359 - -76.4°
